Portada
METAR-TAF:

METAR-TAF

Aeroports :

Southern Wisconsin Regional Airport

Janesville, Wisconsin, Estats Units d'Amèrica

latitud: 42-37N, longitud: 089-02W, altitud: 246 m

Observació

L'informe es va fer fa 13 minuts, a les 03:15 UTC
Vent 8 kt del Est/Sud-Est
Temperatura -1°C
Humitat 100%
Pressió 1015 hPa
Visibilitat: 8.0 km
Cel clar
boirina

METAR: KJVL 120315Z AUTO 11008KT 5SM BR CLR M01/M01 A2997 RMK AO2

Hora: 21:28 (03:28 UTC)


TAF: manca

Observacions i pronòstics meteorològics de més de 4000 aeroports (METAR i TAF).

Les estacions disponibles són els punts grocs i vermells al mapa.

Posi el ratolí al punt desitjat per veure el nom de l'estació.

Feu clic per veure les observacions i els pronòstics meteorològics.

Per canviar el mapa: feu clic els botons verds amb una creu de color negre per apropar; al botó verd amb un guió per allunyar la imatge; o en les fletxes verdes per a mapes adjacents.


METAR-TAF: